Location: Antoign�
(47.0844°N, 0.1131°W)
Time: 00:20:53
(UTC+00:00)

SKYMED 2 - Pass Details

Date: 03 March 2021
Orbit: 621 x 623 km, 97.9° (Epoch: 14 April)

Event Time Altitude Azimuth Distance (km) Brightness Sun altitude
Rises 18:31:10 0° 10° (N) 2,917 6.9 -8.0°
Reaches altitude 10° 18:33:24 10° 7° (N) 2,005 6.1 -8.4°
Maximum altitude 18:37:41 60° 287° (WNW) 715 4.2 -9.1°
Drops below altitude 10° 18:41:57 10° 208° (SSW) 1,988 6.5 -9.8°
Sets 18:44:09 0° 205° (SSW) 2,890 7.3 -10.2°
